Date String (YYYY-MM-DD hh:mm:ss) UTC,Instrument flags,Ambient pressure (hPa),Sample flow (lpm),Bypass flow (lpm),Sample temperature (°C),Ambient temperature (°C),ASC tube jacket temperature (°C),LED temperature (°C),Box temperature (°C),Sample RH (%),Span deviation,Mass concentration (μg/m³),Mass concentration (μg/m³),Mass concentration (μg/m³)
DateTimeUTC,F1_M11,P_M11,Q1_M11,Q2_M11,T1_M11,T2_M11,T3_M11,T4_M11,T5_M11,U1_M11,ZSPAN_M11,X2_M11,X0_M11,X1_M11
2022-01-04 02:00:00,,0821.4,5.01,0.00,24.2,23.4,00.0,33.3,25.8,10.0,0003.6,0011.25,0016.24,0010.43
2022-01-04 02:01:00,,0821.4,4.99,0.00,24.2,23.3,00.0,33.3,25.7,10.0,0003.6,0011.91,0017.45,0011.05
2022-01-04 02:02:00,,0821.3,5.00,0.00,24.1,23.3,00.0,33.3,25.7,10.0,0003.8,0012.12,0018.04,0011.26
2022-01-04 02:03:00,,0821.2,5.00,0.00,24.1,23.3,00.0,33.3,25.7,09.9,0002.3,0012.19,0018.08,0011.34
2022-01-04 02:04:00,,0821.2,5.01,0.00,24.1,23.3,00.0,33.3,25.8,09.6,0003.3,0012.13,0017.51,0011.29
2022-01-04 02:05:00,,0821.3,5.01,0.00,24.1,23.3,00.0,33.2,25.9,09.3,0003.0,0011.95,0016.84,0011.16
2022-01-04 02:06:00,,0821.4,4.99,0.00,24.1,23.4,00.0,33.2,25.9,09.1,0002.5,0011.70,0016.57,0010.92
2022-01-04 02:07:00,,0821.4,5.01,0.00,24.1,23.4,00.0,33.2,25.8,09.1,0002.3,0011.56,0016.76,0010.75
2022-01-04 02:08:00,,0821.3,4.99,0.00,24.1,23.4,00.0,33.2,25.8,09.2,0002.1,0011.34,0016.74,0010.54
2022-01-04 02:09:00,,0821.2,5.01,0.00,24.1,23.4,00.0,33.2,25.9,09.1,0002.3,0011.18,0016.57,0010.36
2022-01-04 02:10:00,,0821.2,5.01,0.00,24.1,23.4,00.0,33.2,25.9,09.2,0002.5,0010.96,0016.37,0010.16
2022-01-04 02:11:00,,0821.2,4.98,0.00,24.2,23.4,00.0,33.2,25.9,09.2,0002.2,0010.76,0016.22,0009.97
2022-01-04 02:12:00,,0821.3,5.01,0.00,24.2,23.4,00.0,33.2,25.9,09.1,0002.2,0010.54,0015.55,0009.76
2022-01-04 02:13:00,,0821.3,5.00,0.00,24.2,23.5,00.0,33.2,26.0,08.9,0001.8,0010.27,0015.34,0009.54
2022-01-04 02:14:00,,0821.4,4.99,0.00,24.2,23.5,00.0,33.2,26.0,08.7,0001.9,0010.03,0015.48,0009.27
2022-01-04 02:15:00,,0821.3,5.02,0.00,24.2,23.5,00.0,33.2,26.0,08.6,0002.1,0009.79,0015.39,0009.04
2022-01-04 02:16:00,,0821.4,4.99,0.00,24.2,23.5,00.0,33.2,26.0,08.4,0000.5,0009.58,0015.27,0008.83
2022-01-04 02:17:00,,0821.4,5.00,0.00,24.2,23.5,00.0,33.2,26.0,08.7,0000.0,0009.49,0015.40,0008.73
2022-01-04 02:18:00,,0821.4,5.00,0.00,24.2,23.5,00.0,33.2,26.0,08.9,0000.0,0009.47,0014.98,0008.71
2022-01-04 02:19:00,,0821.4,4.99,0.00,24.2,23.5,00.0,33.2,26.0,08.8,0000.0,0009.38,0014.62,0008.67
2022-01-04 02:20:00,,0821.4,5.00,0.00,24.2,23.5,00.0,33.2,25.9,08.9,0000.0,0009.29,0014.38,0008.63
2022-01-04 02:21:00,,0821.4,5.00,0.00,24.2,23.5,00.0,33.2,25.9,08.5,0000.0,0009.08,0014.18,0008.44
2022-01-04 02:22:00,,0821.2,5.01,0.00,24.2,23.5,00.0,33.2,25.9,08.7,0000.0,0008.90,0013.92,0008.27
2022-01-04 02:23:00,,0821.1,5.01,0.00,24.2,23.5,00.0,33.2,25.9,08.6,0000.0,0008.80,0013.73,0008.16
2022-01-04 02:24:00,,0821.1,5.00,0.00,24.2,23.5,00.0,33.2,25.9,08.1,0000.0,0008.50,0012.91,0007.90
2022-01-04 02:25:00,,0821.0,5.01,0.00,24.2,23.5,00.0,33.2,25.9,07.7,0000.0,0008.08,0012.04,0007.53
2022-01-04 02:26:00,,0821.0,4.99,0.00,24.2,23.5,00.0,33.2,25.9,08.0,0000.0,0007.82,0011.46,0007.28
2022-01-04 02:27:00,,0821.1,5.00,0.00,24.2,23.5,00.0,33.2,25.9,07.9,0000.0,0007.67,0011.02,0007.11
2022-01-04 02:28:00,,0821.1,5.00,0.00,24.2,23.4,00.0,33.2,25.9,07.8,0000.0,0007.37,0010.61,0006.86
2022-01-04 02:29:00,,0821.1,5.00,0.00,24.2,23.4,00.0,33.2,25.9,08.3,0000.0,0007.08,0010.31,0006.62
2022-01-04 02:30:00,,0821.1,4.98,0.00,24.2,23.4,00.0,33.2,25.9,08.3,0000.0,0006.97,0010.57,0006.48
2022-01-04 02:31:00,,0821.2,5.01,0.00,24.2,23.4,00.0,33.2,25.9,08.3,0000.0,0006.78,0010.38,0006.30
2022-01-04 02:32:00,,0821.1,4.99,0.00,24.2,23.4,00.0,33.2,25.9,08.5,0000.0,0006.80,0010.24,0006.33
2022-01-04 02:33:00,,0821.0,5.01,0.00,24.2,23.4,00.0,33.2,25.8,08.1,0000.0,0006.73,0010.29,0006.25
2022-01-04 02:34:00,,0821.0,4.99,0.00,24.1,23.4,00.0,33.2,25.8,08.0,0000.0,0006.50,0010.03,0006.04
2022-01-04 02:35:00,,0821.0,5.01,0.00,24.1,23.4,00.0,33.2,25.8,07.9,0000.0,0006.43,0010.14,0005.97
2022-01-04 02:36:00,,0821.0,5.00,0.00,24.1,23.4,00.0,33.2,25.8,07.9,0000.0,0006.52,0010.39,0006.06
2022-01-04 02:37:00,,0821.0,4.99,0.00,24.1,23.4,00.0,33.1,25.8,08.0,0000.0,0006.55,0010.40,0006.10
2022-01-04 02:38:00,,0820.9,5.00,0.00,24.1,23.3,00.0,33.1,25.8,08.6,0000.0,0006.68,0010.56,0006.22
2022-01-04 02:39:00,,0820.9,5.01,0.00,24.1,23.3,00.0,33.1,25.8,08.9,0000.0,0007.01,0010.75,0006.52
2022-01-04 02:40:00,,0820.9,5.01,0.00,24.1,23.3,00.0,33.1,25.9,08.8,0000.0,0007.26,0011.07,0006.74
2022-01-04 02:41:00,,0820.9,5.00,0.00,24.1,23.3,00.0,33.1,25.9,08.5,0000.0,0007.24,0010.85,0006.73
2022-01-04 02:42:00,,0820.9,4.99,0.00,24.1,23.4,00.0,33.1,25.9,08.4,0000.0,0007.25,0011.10,0006.72
2022-01-04 02:43:00,,0820.9,5.00,0.00,24.1,23.3,00.0,33.1,25.8,08.6,0000.0,0007.23,0011.26,0006.68
2022-01-04 02:44:00,,0820.9,5.01,0.00,24.1,23.3,00.0,33.1,25.7,08.9,0000.0,0007.37,0011.39,0006.81
2022-01-04 02:45:00,,0820.9,5.00,0.00,24.1,23.3,00.0,33.1,25.7,09.1,0000.0,0007.71,0011.85,0007.17
2022-01-04 02:46:00,,0820.9,5.01,0.00,24.0,23.3,00.0,33.1,25.7,08.9,0000.0,0007.99,0012.10,0007.44
2022-01-04 02:47:00,,0820.9,4.98,0.00,24.0,23.3,00.0,33.1,25.6,09.0,0000.0,0008.14,0012.03,0007.60
2022-01-04 02:48:00,,0820.9,5.00,0.00,24.0,23.2,00.0,33.1,25.6,08.7,0000.0,0008.23,0012.17,0007.67
2022-01-04 02:49:00,,0820.8,5.01,0.00,24.0,23.2,00.0,33.1,25.6,08.0,0000.0,0008.05,0012.03,0007.51
2022-01-04 02:50:00,,0820.8,4.99,0.00,24.0,23.2,00.0,33.1,25.6,07.8,0000.0,0007.69,0011.71,0007.16
2022-01-04 02:51:00,,0820.7,5.01,0.00,24.0,23.2,00.0,33.1,25.6,07.6,0000.0,0007.28,0011.18,0006.76
2022-01-04 02:52:00,,0820.7,5.01,0.00,24.0,23.2,00.0,33.0,25.6,07.4,0000.0,0006.94,0010.77,0006.45
2022-01-04 02:53:00,,0820.7,4.99,0.00,24.0,23.2,00.0,33.0,25.6,07.3,0000.0,0006.62,0010.08,0006.17
2022-01-04 02:54:00,,0820.7,5.01,0.00,24.0,23.2,00.0,33.0,25.6,07.1,0000.0,0006.19,0009.42,0005.79
2022-01-04 02:55:00,,0820.7,4.99,0.00,24.0,23.2,00.0,33.0,25.6,06.9,0000.0,0005.60,0008.61,0005.24
2022-01-04 02:56:00,,0820.6,5.01,0.00,24.0,23.2,00.0,33.0,25.6,06.8,0000.0,0004.86,0007.68,0004.54
2022-01-04 02:57:00,,0820.6,5.00,0.00,24.0,23.2,00.0,33.0,25.6,06.9,0000.0,0004.27,0006.59,0003.98
2022-01-04 02:58:00,,0820.7,4.99,0.00,24.0,23.2,00.0,33.0,25.6,07.2,0000.0,0003.89,0005.99,0003.60
2022-01-04 02:59:00,,0820.7,5.00,0.00,23.9,23.2,00.0,33.0,25.6,08.5,0000.0,0003.75,0006.99,0003.48
